| time (UTC) | temp F | wind direction | speed MPH | gust MPH | rain 1hr in | rain 24hr in | rain mn in | humidity % | barometer mb |
| 20260510084133 | 63 | 180 | 5.0 | 7.0 | 0.00 | 0.00 | 0.00 | 66 | 1025.2 |
| 20260510083150 | 62 | 144 | 3.0 | 8.0 | 0.00 | 0.00 | 0.00 | 67 | 1025.1 |
| 20260510081234 | 61 | 180 | 5.0 | 7.0 | 0.00 | 0.00 | 0.00 | 68 | 1025.3 |
| 20260510080332 | 62 | 180 | 4.0 | 7.0 | 0.00 | 0.00 | 0.00 | 68 | 1025.2 |
| 20260510075335 | 62 | 180 | 3.0 | 6.0 | 0.00 | 0.00 | 0.00 | 70 | 1025.2 |
| 20260510074434 | 61 | 180 | 4.0 | 7.0 | 0.00 | 0.00 | 0.00 | 72 | 1025.4 |
| 20260510073433 | 60 | 180 | 2.0 | 5.0 | 0.00 | 0.00 | 0.00 | 73 | 1025.4 |
| 20260510072433 | 59 | 180 | 2.0 | 5.0 | 0.00 | 0.00 | 0.00 | 76 | 1025.5 |
| 20260510071435 | 57 | 180 | 4.0 | 7.0 | 0.00 | 0.00 | 0.00 | 78 | 1025.6 |
| 20260510070434 | 56 | 180 | 4.0 | 7.0 | 0.00 | 0.00 | 0.00 | 80 | 1025.5 |
| 20260510065432 | 54 | 180 | 3.0 | 6.0 | 0.00 | 0.00 | 0.00 | 83 | 1025.6 |
| 20260510064435 | 52 | 180 | 6.0 | 10.0 | 0.00 | 0.00 | 0.00 | 86 | 1025.5 |
| 20260510063434 | 51 | 180 | 3.0 | 7.0 | 0.00 | 0.00 | 0.00 | 88 | 1025.5 |
| 20260510061535 | 49 | 169 | 3.0 | 7.0 | 0.00 | 0.00 | 0.00 | 89 | 1025.4 |
| 20260510060533 | 49 | 180 | 4.0 | 7.0 | 0.00 | 0.00 | 0.00 | 90 | 1025.5 |
| 20260510060434 | 49 | 180 | 3.0 | 7.0 | 0.00 | 0.00 | 0.00 | 90 | 1025.4 |
| 20260510055533 | 49 | 180 | 6.0 | 9.0 | 0.00 | 0.00 | 0.00 | 90 | 1025.4 |
| 20260510054534 | 49 | 180 | 3.0 | 4.0 | 0.00 | 0.00 | 0.00 | 91 | 1025.4 |
| 20260510052535 | 48 | 180 | 2.0 | 4.0 | 0.00 | 0.00 | 0.00 | 92 | 1025.5 |
| 20260510051535 | 47 | 180 | 2.0 | 5.0 | 0.00 | 0.00 | 0.00 | 92 | 1025.5 |
| 20260510051433 | 47 | 180 | 3.0 | 6.0 | 0.00 | 0.00 | 0.00 | 92 | 1025.5 |
| 20260510045435 | 47 | 180 | 3.0 | 6.0 | 0.00 | 0.00 | 0.00 | 92 | 1025.5 |
| 20260510044432 | 47 | 180 | 2.0 | 5.0 | 0.00 | 0.00 | 0.00 | 92 | 1025.4 |
| 20260510043435 | 46 | 180 | 1.0 | 3.0 | 0.00 | 0.00 | 0.00 | 92 | 1025.3 |
| 20260510042434 | 46 | 180 | 4.0 | 7.0 | 0.00 | 0.00 | 0.00 | 92 | 1025.4 |
| 20260510041436 | 46 | 180 | 2.0 | 5.0 | 0.00 | 0.00 | 0.00 | 91 | 1025.3 |
| 20260510040533 | 46 | 180 | 3.0 | 5.0 | 0.00 | 0.00 | 0.00 | 91 | 1025.3 |
| 20260510035534 | 45 | 180 | 4.0 | 5.0 | 0.00 | 0.00 | 0.00 | 89 | 1025.2 |
| 20260510035435 | 45 | 180 | 2.0 | 4.0 | 0.00 | 0.00 | 0.00 | 89 | 1025.2 |
| 20260510034534 | 45 | 180 | 2.0 | 4.0 | 0.00 | 0.00 | 0.00 | 88 | 1025.2 |
| 20260510033535 | 45 | 180 | 1.0 | 3.0 | 0.00 | 0.00 | 0.00 | 88 | 1025.2 |
| 20260510031632 | 46 | 180 | 0.0 | 0.0 | 0.00 | 0.00 | 0.00 | 88 | 1025.3 |
| 20260510030533 | 46 | 180 | 0.0 | 0.0 | 0.00 | 0.00 | 0.00 | 88 | 1025.3 |
| 20260510025533 | 46 | 180 | 0.0 | 2.0 | 0.00 | 0.00 | 0.00 | 88 | 1025.4 |
| 20260510024538 | 46 | 180 | 0.0 | 0.0 | 0.00 | 0.00 | 0.00 | 87 | 1025.4 |
| 20260510023533 | 45 | 180 | 0.0 | 1.0 | 0.00 | 0.00 | 0.00 | 86 | 1025.5 |
| 20260510022533 | 45 | 180 | 1.0 | 2.0 | 0.00 | 0.00 | 0.00 | 86 | 1025.6 |
| 20260510022432 | 45 | 180 | 1.0 | 2.0 | 0.00 | 0.00 | 0.00 | 86 | 1025.5 |
| 20260510022334 | 45 | 180 | 1.0 | 2.0 | 0.00 | 0.00 | 0.00 | 86 | 1025.5 |
| 20260510021334 | 46 | 180 | 0.0 | 0.0 | 0.00 | 0.00 | 0.00 | 86 | 1025.6 |
| 20260510020432 | 46 | 180 | 0.0 | 0.0 | 0.00 | 0.00 | 0.00 | 86 | 1025.6 |
| 20260510015434 | 47 | 180 | 1.0 | 2.0 | 0.00 | 0.00 | 0.00 | 85 | 1025.7 |
| 20260510014436 | 47 | 180 | 1.0 | 2.0 | 0.00 | 0.00 | 0.00 | 85 | 1025.5 |
| 20260510013434 | 47 | 180 | 1.0 | 2.0 | 0.00 | 0.00 | 0.00 | 85 | 1025.7 |
| 20260510013334 | 47 | 180 | 1.0 | 2.0 | 0.00 | 0.00 | 0.00 | 85 | 1025.6 |
| 20260510012333 | 46 | 180 | 0.0 | 0.0 | 0.00 | 0.00 | 0.00 | 84 | 1025.8 |
| 20260510010334 | 46 | 180 | 0.0 | 0.0 | 0.00 | 0.00 | 0.00 | 83 | 1025.8 |
| 20260510005334 | 46 | 180 | 0.0 | 0.0 | 0.00 | 0.00 | 0.00 | 82 | 1025.8 |
| 20260510004334 | 47 | 180 | 0.0 | 1.0 | 0.00 | 0.00 | 0.00 | 82 | 1025.8 |
| 20260510003433 | 47 | 180 | 0.0 | 0.0 | 0.00 | 0.00 | 0.00 | 81 | 1025.9 |
| 20260509234535 | 49 | 180 | 2.0 | 3.0 | 0.00 | 0.00 | 0.00 | 80 | 1026.1 |
| 20260509234433 | 49 | 180 | 2.0 | 4.0 | 0.00 | 0.00 | 0.00 | 79 | 1026.1 |
| 20260509233435 | 49 | 180 | 0.0 | 1.0 | 0.00 | 0.00 | 0.00 | 79 | 1026.4 |
| 20260509232533 | 48 | 180 | 0.0 | 1.0 | 0.00 | 0.00 | 0.00 | 78 | 1026.5 |
| 20260509232432 | 48 | 180 | 1.0 | 2.0 | 0.00 | 0.00 | 0.00 | 78 | 1026.6 |
| 20260509231435 | 48 | 180 | 0.0 | 1.0 | 0.00 | 0.00 | 0.00 | 77 | 1026.5 |
| 20260509230532 | 48 | 180 | 0.0 | 0.0 | 0.00 | 0.00 | 0.00 | 76 | 1026.7 |
| 20260509225533 | 49 | 180 | 0.0 | 1.0 | 0.00 | 0.00 | 0.00 | 75 | 1026.6 |
| 20260509224536 | 49 | 180 | 1.0 | 2.0 | 0.00 | 0.00 | 0.00 | 74 | 1026.6 |
| 20260509223534 | 49 | 180 | 0.0 | 0.0 | 0.00 | 0.00 | 0.00 | 74 | 1026.7 |
| 20260509222537 | 50 | 180 | 0.0 | 0.0 | 0.00 | 0.00 | 0.00 | 74 | 1026.8 |
| 20260509221537 | 50 | 180 | 0.0 | 0.0 | 0.00 | 0.00 | 0.00 | 74 | 1026.7 |
| 20260509220633 | 50 | 180 | 1.0 | 1.0 | 0.00 | 0.00 | 0.00 | 73 | 1026.6 |
| 20260509215717 | 50 | 90 | 0.0 | 2.0 | 0.00 | 0.00 | 0.00 | 72 | 1026.7 |
| 20260509215615 | 50 | 172 | 0.0 | 1.0 | 0.00 | 0.00 | 0.00 | 72 | 1026.7 |
| 20260509214615 | 51 | 180 | 0.0 | 0.0 | 0.00 | 0.00 | 0.00 | 71 | 1026.7 |
| 20260509213616 | 51 | 180 | 0.0 | 1.0 | 0.00 | 0.00 | 0.00 | 69 | 1026.7 |
| 20260509212615 | 52 | 180 | 0.0 | 0.0 | 0.00 | 0.00 | 0.00 | 68 | 1026.8 |
| 20260509210814 | 53 | 180 | 1.0 | 2.0 | 0.00 | 0.00 | 0.00 | 69 | 1026.7 |
| 20260509205817 | 53 | 180 | 1.0 | 2.0 | 0.00 | 0.00 | 0.00 | 68 | 1026.7 |
| 20260509204838 | 54 | 180 | 1.0 | 2.0 | 0.00 | 0.00 | 0.00 | 68 | 1026.9 |
| 20260509203914 | 54 | 180 | 0.0 | 1.0 | 0.00 | 0.00 | 0.00 | 68 | 1026.8 |
| 20260509203814 | 54 | 180 | 0.0 | 0.0 | 0.00 | 0.00 | 0.00 | 68 | 1026.9 |
| 20260509202815 | 54 | 180 | 0.0 | 0.0 | 0.00 | 0.00 | 0.00 | 69 | 1027.0 |
| 20260509201816 | 53 | 180 | 0.0 | 0.0 | 0.00 | 0.00 | 0.00 | 67 | 1027.0 |
| 20260509200815 | 54 | 180 | 0.0 | 0.0 | 0.00 | 0.00 | 0.00 | 65 | 1026.9 |
| 20260509195914 | 55 | 180 | 0.0 | 0.0 | 0.00 | 0.00 | 0.00 | 64 | 1027.1 |
| 20260509194918 | 55 | 180 | 1.0 | 2.0 | 0.00 | 0.00 | 0.00 | 62 | 1027.0 |
| 20260509192015 | 58 | 180 | 0.0 | 1.0 | 0.00 | 0.00 | 0.00 | 58 | 1027.0 |
| 20260509191015 | 59 | 180 | 0.0 | 1.0 | 0.00 | 0.00 | 0.00 | 57 | 1026.9 |
| 20260509190916 | 59 | 180 | 0.0 | 2.0 | 0.00 | 0.00 | 0.00 | 57 | 1026.9 |
| 20260509185917 | 60 | 180 | 0.0 | 0.0 | 0.00 | 0.00 | 0.00 | 55 | 1026.8 |
| 20260509184915 | 61 | 180 | 0.0 | 0.0 | 0.00 | 0.00 | 0.00 | 53 | 1026.8 |
| 20260509183936 | 62 | 180 | 0.0 | 2.0 | 0.00 | 0.00 | 0.00 | 50 | 1026.7 |
| 20260509183015 | 62 | 180 | 3.0 | 4.0 | 0.00 | 0.00 | 0.00 | 49 | 1026.7 |
| 20260509182015 | 63 | 180 | 0.0 | 0.0 | 0.00 | 0.00 | 0.00 | 49 | 1026.6 |
| 20260509180016 | 64 | 180 | 0.0 | 1.0 | 0.00 | 0.00 | 0.00 | 48 | 1026.7 |
| 20260509175114 | 64 | 158 | 2.0 | 3.0 | 0.00 | 0.00 | 0.00 | 48 | 1026.5 |
| 20260509174115 | 65 | 180 | 1.0 | 5.0 | 0.00 | 0.00 | 0.00 | 47 | 1026.4 |
| 20260509174016 | 65 | 180 | 2.0 | 3.0 | 0.00 | 0.00 | 0.00 | 47 | 1026.5 |
| 20260509173114 | 65 | 180 | 1.0 | 4.0 | 0.00 | 0.00 | 0.00 | 46 | 1026.6 |
| 20260509172115 | 66 | 180 | 2.0 | 7.0 | 0.00 | 0.00 | 0.00 | 45 | 1026.6 |
| 20260509171115 | 66 | 180 | 1.0 | 3.0 | 0.00 | 0.00 | 0.00 | 45 | 1026.4 |
| 20260509170214 | 67 | 126 | 2.0 | 6.0 | 0.00 | 0.00 | 0.00 | 44 | 1026.5 |
| 20260509170114 | 67 | 155 | 2.0 | 3.0 | 0.00 | 0.00 | 0.00 | 44 | 1026.5 |
| 20260509165116 | 66 | 180 | 0.0 | 0.0 | 0.00 | 0.00 | 0.00 | 45 | 1026.6 |
| 20260509165016 | 66 | 180 | 0.0 | 1.0 | 0.00 | 0.00 | 0.00 | 45 | 1026.5 |
| 20260509163016 | 67 | 180 | 2.0 | 3.0 | 0.00 | 0.00 | 0.00 | 42 | 1026.6 |
| 20260509162014 | 68 | 180 | 1.0 | 3.0 | 0.00 | 0.00 | 0.00 | 43 | 1026.6 |
| 20260509161015 | 68 | 156 | 3.0 | 4.0 | 0.00 | 0.00 | 0.00 | 43 | 1026.5 |
| 20260509160015 | 67 | 166 | 2.0 | 4.0 | 0.00 | 0.00 | 0.00 | 43 | 1026.6 |
| 20260509155016 | 68 | 180 | 2.0 | 5.0 | 0.00 | 0.00 | 0.00 | 41 | 1026.6 |
| 20260509154936 | 69 | 155 | 1.0 | 4.0 | 0.00 | 0.00 | 0.00 | 41 | 1026.6 |
| 20260509153915 | 71 | 106 | 3.0 | 6.0 | 0.00 | 0.00 | 0.00 | 40 | 1026.6 |
| 20260509151916 | 74 | 135 | 4.0 | 6.0 | 0.00 | 0.00 | 0.00 | 37 | 1026.8 |
| 20260509150916 | 75 | 147 | 3.0 | 5.0 | 0.00 | 0.00 | 0.00 | 38 | 1026.9 |
| 20260509150814 | 75 | 140 | 2.0 | 5.0 | 0.00 | 0.00 | 0.00 | 38 | 1026.9 |
| 20260509145815 | 74 | 171 | 1.0 | 2.0 | 0.00 | 0.00 | 0.00 | 40 | 1027.0 |
| 20260509144815 | 71 | 135 | 2.0 | 4.0 | 0.00 | 0.00 | 0.00 | 41 | 1027.0 |
| 20260509142918 | 73 | 180 | 0.0 | 2.0 | 0.00 | 0.00 | 0.00 | 37 | 1027.1 |
| 20260509142815 | 73 | 180 | 2.0 | 3.0 | 0.00 | 0.00 | 0.00 | 37 | 1027.1 |
| 20260509141815 | 74 | 180 | 5.0 | 8.0 | 0.00 | 0.00 | 0.00 | 39 | 1027.1 |
| 20260509133916 | 74 | 180 | 5.0 | 7.0 | 0.00 | 0.00 | 0.00 | 39 | 1027.7 |
| 20260509132917 | 74 | 175 | 4.0 | 6.0 | 0.00 | 0.00 | 0.00 | 39 | 1027.7 |
| 20260509131915 | 73 | 90 | 0.0 | 2.0 | 0.00 | 0.00 | 0.00 | 42 | 1027.9 |
| 20260509131816 | 73 | 141 | 1.0 | 3.0 | 0.00 | 0.00 | 0.00 | 41 | 1027.9 |
| 20260509130815 | 71 | 180 | 1.0 | 4.0 | 0.00 | 0.00 | 0.00 | 45 | 1028.1 |
| 20260509125815 | 68 | 124 | 1.0 | 2.0 | 0.00 | 0.00 | 0.00 | 45 | 1028.2 |
| 20260509123915 | 71 | 166 | 5.0 | 7.0 | 0.00 | 0.00 | 0.00 | 41 | 1028.3 |
| 20260509122914 | 72 | 153 | 2.0 | 4.0 | 0.00 | 0.00 | 0.00 | 43 | 1028.3 |
| 20260509122815 | 72 | 180 | 3.0 | 5.0 | 0.00 | 0.00 | 0.00 | 43 | 1028.4 |
| 20260509121913 | 69 | 122 | 0.0 | 1.0 | 0.00 | 0.00 | 0.00 | 45 | 1028.4 |
| 20260509120013 | 73 | 129 | 1.0 | 2.0 | 0.00 | 0.00 | 0.00 | 45 | 1028.7 |
| 20260509115917 | 73 | 115 | 2.0 | 4.0 | 0.00 | 0.00 | 0.00 | 46 | 1028.6 |
| 20260509115815 | 72 | 129 | 1.0 | 3.0 | 0.00 | 0.00 | 0.00 | 46 | 1028.6 |
| 20260509114913 | 70 | 180 | 1.0 | 4.0 | 0.00 | 0.00 | 0.00 | 47 | 1028.7 |
| 20260509113917 | 69 | 180 | 4.0 | 6.0 | 0.00 | 0.00 | 0.00 | 46 | 1029.0 |
| 20260509113816 | 69 | 180 | 2.0 | 4.0 | 0.00 | 0.00 | 0.00 | 46 | 1029.0 |
| 20260509112816 | 68 | 180 | 2.0 | 3.0 | 0.00 | 0.00 | 0.00 | 50 | 1029.1 |
| 20260509111815 | 65 | 180 | 3.0 | 6.0 | 0.00 | 0.00 | 0.00 | 50 | 1029.2 |
| 20260509111714 | 65 | 180 | 2.0 | 4.0 | 0.00 | 0.00 | 0.00 | 50 | 1029.2 |
| 20260509110715 | 62 | 161 | 3.0 | 6.0 | 0.00 | 0.00 | 0.00 | 52 | 1029.4 |
| 20260509105815 | 63 | 119 | 1.0 | 3.0 | 0.00 | 0.00 | 0.00 | 53 | 1029.4 |
| 20260509105714 | 63 | 137 | 3.0 | 6.0 | 0.00 | 0.00 | 0.00 | 53 | 1029.4 |
| 20260509105615 | 63 | 180 | 1.0 | 3.0 | 0.00 | 0.00 | 0.00 | 53 | 1029.5 |
| 20260509104615 | 63 | 174 | 4.0 | 7.0 | 0.00 | 0.00 | 0.00 | 53 | 1029.5 |
| 20260509103714 | 64 | 180 | 2.0 | 4.0 | 0.00 | 0.00 | 0.00 | 52 | 1029.5 |
| 20260509102716 | 64 | 90 | 2.0 | 3.0 | 0.00 | 0.00 | 0.00 | 52 | 1029.6 |
| 20260509100715 | 67 | 161 | 3.0 | 5.0 | 0.00 | 0.00 | 0.00 | 51 | 1029.5 |
| 20260509100615 | 67 | 180 | 3.0 | 6.0 | 0.00 | 0.00 | 0.00 | 51 | 1029.7 |
| 20260509095713 | 68 | 180 | 4.0 | 5.0 | 0.00 | 0.00 | 0.00 | 52 | 1029.6 |
| 20260509094717 | 69 | 180 | 1.0 | 2.0 | 0.00 | 0.00 | 0.00 | 52 | 1029.5 |
| 20260509092714 | 70 | 178 | 4.0 | 6.0 | 0.00 | 0.00 | 0.00 | 54 | 1029.6 |
| 20260509091715 | 70 | 144 | 0.0 | 0.0 | 0.00 | 0.00 | 0.00 | 56 | 1029.6 |
| 20260509084915 | 69 | 145 | 0.0 | 1.0 | 0.00 | 0.00 | 0.00 | 59 | 1029.6 |